Date String (YYYY-MM-DD hh:mm:ss) UTC,Instrument flags,Ambient pressure (hPa),Sample flow (lpm),Bypass flow (lpm),Sample temperature (°C),Ambient temperature (°C),ASC tube jacket temperature (°C),LED temperature (°C),Box temperature (°C),Sample RH (%),Span deviation,Mass concentration (μg/m³),Mass concentration (μg/m³),Mass concentration (μg/m³)
DateTimeUTC,F1_M11,P_M11,Q1_M11,Q2_M11,T1_M11,T2_M11,T3_M11,T4_M11,T5_M11,U1_M11,ZSPAN_M11,X0_M11,X2_M11,X1_M11
2022-05-15 18:00:00,,0831.4,5.00,0.00,29.4,26.9,00.0,38.4,31.0,17.0,0000.0,0015.37,0003.71,0002.32
2022-05-15 18:01:00,,0831.4,5.01,0.00,29.4,27.2,00.0,38.3,31.1,16.8,0000.0,0014.64,0003.66,0002.31
2022-05-15 18:02:00,,0831.2,4.99,0.00,29.4,27.5,00.0,38.3,31.1,17.2,0000.0,0014.10,0003.69,0002.32
2022-05-15 18:03:00,,0831.2,5.00,0.00,29.4,27.7,00.0,38.3,31.2,17.1,0000.0,0013.69,0003.71,0002.32
2022-05-15 18:04:00,,0831.2,5.00,0.00,29.4,27.9,00.0,38.3,31.2,16.7,0000.0,0013.82,0003.76,0002.33
2022-05-15 18:05:00,,0831.2,5.00,0.00,29.5,28.1,00.0,38.4,31.3,17.2,0000.0,0014.48,0003.82,0002.34
2022-05-15 18:06:00,,0831.2,5.01,0.00,29.5,28.2,00.0,38.4,31.3,17.0,0000.0,0015.23,0003.79,0002.34
2022-05-15 18:07:00,,0831.2,4.99,0.00,29.5,28.3,00.0,38.4,31.4,16.9,0000.0,0015.93,0003.76,0002.35
2022-05-15 18:08:00,,0831.2,5.00,0.00,29.6,28.4,00.0,38.4,31.4,16.8,0000.0,0016.95,0003.76,0002.35
2022-05-15 18:09:00,,0831.2,5.00,0.00,29.6,28.5,00.0,38.4,31.4,17.0,0000.0,0017.04,0003.74,0002.32
2022-05-15 18:10:00,,0831.2,5.00,0.00,29.6,28.5,00.0,38.4,31.4,17.2,0000.0,0015.98,0003.69,0002.29
2022-05-15 18:11:00,,0831.2,5.01,0.00,29.6,28.5,00.0,38.5,31.5,16.8,0000.0,0015.99,0003.74,0002.29
2022-05-15 18:12:00,,0831.1,4.99,0.00,29.7,28.6,00.0,38.5,31.5,17.1,0000.0,0016.95,0003.76,0002.30
2022-05-15 18:13:00,,0831.1,5.01,0.00,29.7,28.7,00.0,38.5,31.6,17.3,0000.0,0017.42,0003.78,0002.30
2022-05-15 18:14:00,,0831.1,5.00,0.00,29.7,28.8,00.0,38.5,31.6,16.7,0000.0,0017.50,0003.77,0002.30
2022-05-15 18:15:00,,0831.2,5.00,0.00,29.7,28.8,00.0,38.5,31.6,16.5,0000.0,0016.94,0003.73,0002.30
2022-05-15 18:16:00,,0831.2,5.00,0.00,29.7,28.8,00.0,38.6,31.6,16.4,0000.0,0016.23,0003.73,0002.33
2022-05-15 18:17:00,,0831.2,5.00,0.00,29.7,28.7,00.0,38.6,31.6,16.2,0000.0,0015.61,0003.80,0002.38
2022-05-15 18:18:00,,0831.1,4.99,0.00,29.7,27.2,00.0,38.6,31.2,16.3,0000.0,0014.72,0003.82,0002.41
2022-05-15 18:19:00,,0831.2,5.01,0.00,29.5,25.1,00.0,38.5,30.7,16.6,0000.0,0013.90,0003.83,0002.42
2022-05-15 18:20:00,,0831.2,5.00,0.00,29.4,25.0,00.0,38.5,30.8,16.8,0000.0,0014.04,0003.83,0002.43
2022-05-15 18:21:00,,0831.1,5.00,0.00,29.4,25.5,00.0,38.4,30.8,17.0,0000.0,0014.60,0003.93,0002.47
2022-05-15 18:22:00,,0831.1,4.99,0.00,29.3,26.1,00.0,38.4,30.9,16.9,0000.0,0016.17,0003.93,0002.49
2022-05-15 18:23:00,,0831.1,5.00,0.00,29.3,26.6,00.0,38.3,30.9,17.5,0000.0,0015.94,0003.89,0002.50
2022-05-15 18:24:00,,0831.1,5.01,0.00,29.3,27.0,00.0,38.3,31.0,17.2,0000.0,0017.34,0003.88,0002.50
2022-05-15 18:25:00,,0831.0,5.00,0.00,29.3,27.3,00.0,38.3,31.0,16.7,0000.0,0017.10,0003.90,0002.53
2022-05-15 18:26:00,,0831.1,5.01,0.00,29.4,27.6,00.0,38.3,31.1,16.6,0000.0,0018.26,0003.95,0002.55
2022-05-15 18:27:00,,0831.0,4.98,0.00,29.4,27.7,00.0,38.3,31.2,16.4,0000.0,0018.68,0004.03,0002.58
2022-05-15 18:28:00,,0831.0,5.00,0.00,29.4,27.9,00.0,38.3,31.2,16.6,0000.0,0018.81,0004.04,0002.57
2022-05-15 18:29:00,,0831.0,5.00,0.00,29.4,28.0,00.0,38.3,31.2,16.9,0000.0,0018.47,0004.04,0002.55
2022-05-15 18:30:00,,0831.0,5.01,0.00,29.5,28.1,00.0,38.3,31.3,17.0,0000.0,0018.85,0004.08,0002.55
2022-05-15 18:31:00,,0831.0,5.00,0.00,29.5,28.2,00.0,38.3,31.3,16.6,0000.0,0018.21,0004.14,0002.58
2022-05-15 18:32:00,,0831.0,4.99,0.00,29.5,28.3,00.0,38.3,31.3,16.7,0000.0,0017.61,0004.17,0002.58
2022-05-15 18:33:00,,0830.9,5.00,0.00,29.5,28.3,00.0,38.4,31.3,16.7,0000.0,0016.10,0004.20,0002.56
2022-05-15 18:34:00,,0830.9,5.01,0.00,29.5,28.4,00.0,38.4,31.3,16.7,0000.0,0015.62,0004.22,0002.55
2022-05-15 18:35:00,,0830.9,5.01,0.00,29.5,28.4,00.0,38.4,31.3,16.8,0000.0,0014.01,0004.24,0002.56
2022-05-15 18:36:00,,0831.0,5.01,0.00,29.5,28.5,00.0,38.4,31.3,16.7,0000.0,0014.17,0004.25,0002.56
2022-05-15 18:37:00,,0830.8,4.99,0.00,29.5,28.5,00.0,38.4,31.3,16.6,0000.0,0013.55,0004.25,0002.55
2022-05-15 18:38:00,,0830.8,5.00,0.00,29.6,28.5,00.0,38.4,31.4,16.9,0000.0,0013.79,0004.16,0002.50
2022-05-15 18:39:00,,0830.7,5.01,0.00,29.6,28.6,00.0,38.5,31.4,17.1,0000.0,0014.61,0004.15,0002.47
2022-05-15 18:40:00,,0830.7,5.01,0.00,29.6,28.7,00.0,38.5,31.5,16.5,0000.0,0016.76,0004.19,0002.47
2022-05-15 18:41:00,,0830.8,5.00,0.00,29.6,28.7,00.0,38.5,31.5,16.2,0000.0,0017.57,0004.19,0002.49
2022-05-15 18:42:00,,0830.7,4.99,0.00,29.7,28.7,00.0,38.5,31.5,16.7,0000.0,0018.43,0004.18,0002.49
2022-05-15 18:43:00,,0830.7,4.99,0.00,29.7,28.8,00.0,38.5,31.5,16.4,0000.0,0017.90,0004.15,0002.49
2022-05-15 18:44:00,,0830.7,5.00,0.00,29.7,28.8,00.0,38.5,31.5,16.5,0000.0,0018.15,0004.09,0002.50
2022-05-15 18:45:00,,0830.7,5.01,0.00,29.7,27.7,00.0,38.5,31.3,16.4,0000.0,0018.28,0004.13,0002.50
2022-05-15 18:46:00,,0830.8,5.00,0.00,29.6,25.4,00.0,38.5,30.8,16.9,0000.0,0018.29,0004.11,0002.49
2022-05-15 18:47:00,,0830.8,4.99,0.00,29.4,25.0,00.0,38.5,30.7,16.9,0000.0,0018.20,0004.10,0002.48
2022-05-15 18:48:00,,0830.8,5.01,0.00,29.4,25.5,00.0,38.4,30.8,16.8,0000.0,0018.95,0004.09,0002.48
2022-05-15 18:49:00,,0830.8,4.99,0.00,29.3,26.0,00.0,38.4,30.9,16.5,0000.0,0019.83,0004.14,0002.52
2022-05-15 18:50:00,,0830.7,5.01,0.00,29.3,26.4,00.0,38.3,30.9,16.6,0000.0,0019.76,0004.21,0002.57
2022-05-15 18:51:00,,0830.7,5.00,0.00,29.3,26.9,00.0,38.3,31.0,16.8,0000.0,0018.56,0004.24,0002.60
2022-05-15 18:52:00,,0830.7,5.00,0.00,29.3,27.2,00.0,38.3,31.0,16.7,0000.0,0017.29,0004.21,0002.59
2022-05-15 18:53:00,,0830.6,5.00,0.00,29.3,27.5,00.0,38.3,31.1,16.6,0000.0,0016.49,0004.21,0002.59
2022-05-15 18:54:00,,0830.6,4.99,0.00,29.3,27.7,00.0,38.3,31.1,16.8,0000.0,0016.73,0004.19,0002.58
2022-05-15 18:55:00,,0830.6,5.02,0.00,29.4,27.9,00.0,38.3,31.2,16.9,0000.0,0016.79,0004.25,0002.60
2022-05-15 18:56:00,,0830.6,5.00,0.00,29.4,28.0,00.0,38.3,31.2,17.1,0000.0,0016.28,0004.29,0002.61
2022-05-15 18:57:00,,0830.6,5.00,0.00,29.4,28.2,00.0,38.3,31.3,16.9,0000.0,0017.03,0004.32,0002.62
2022-05-15 18:58:00,,0830.6,4.99,0.00,29.5,28.2,00.0,38.3,31.3,17.0,0000.0,0017.91,0004.35,0002.64
2022-05-15 18:59:00,,0830.6,5.00,0.00,29.5,28.3,00.0,38.3,31.3,17.0,0000.0,0017.36,0004.38,0002.66
